Date,TemperatureHighF,TemperatureAvgF,TemperatureLowF,DewpointHighF,DewpointAvgF,DewpointLowF,HumidityHigh,HumidityAvg,HumidityLow,PressureMaxIn,PressureMinIn,WindSpeedMaxMPH,WindSpeedAvgMPH,GustSpeedMaxMPH,PrecipitationSumIn
2012-1-1,34,30,23,33,28,21,97,93,86,30.21,30.09,7,1,8,0.00
2012-1-2,41,36,31,37,34,30,97,93,78,30.18,30.03,10,3,10,0.00
2012-1-3,50,42,35,43,38,34,96,86,68,30.27,30.06,15,3,15,0.04
2012-1-4,45,40,36,43,37,31,97,90,67,30.18,29.91,22,5,22,0.00
2012-1-5,43,40,36,39,31,23,89,69,49,30.06,29.23,26,6,26,0.04
2012-1-6,43,40,38,34,30,27,73,66,61,29.91,29.29,36,14,36,0.00
2012-1-7,43,38,34,32,27,22,88,64,49,30.06,29.88,30,6,30,0.00
2012-1-8,45,40,35,38,34,31,95,81,67,30.00,29.85,22,7,22,0.00
2012-1-9,47,39,34,40,32,28,89,76,62,30.27,29.97,20,6,20,0.00
2012-1-10,41,37,33,38,34,29,97,89,77,30.39,30.18,17,3,17,0.00
2012-1-11,46,41,33,36,32,28,84,71,58,30.45,30.36,21,6,21,0.00
2012-1-12,51,44,38,39,34,29,79,67,54,30.39,30.00,23,6,23,0.00
2012-1-13,46,40,36,36,30,25,76,66,48,30.00,29.91,31,11,33,0.00
2012-1-14,41,36,32,28,24,18,70,60,45,30.00,29.91,33,12,34,0.00
2012-1-15,38,33,30,22,18,14,68,55,43,30.12,30.00,29,11,30,0.00
2012-1-16,34,29,23,22,18,13,80,65,44,30.24,30.12,16,6,16,0.00
2012-1-17,36,32,28,32,26,16,86,79,59,30.33,30.15,20,5,20,0.00
2012-1-18,34,31,28,29,26,22,89,82,73,30.42,30.33,10,3,10,0.00
2012-1-19,41,33,29,40,29,24,95,86,81,30.33,29.32,15,3,15,0.00
2012-1-20,43,40,36,41,35,27,96,82,62,29.88,29.80,28,4,28,0.00
2012-1-21,45,37,33,32,27,24,91,68,50,30.00,29.71,24,7,24,0.00
2012-1-22,48,41,34,37,32,28,96,73,47,29.80,29.59,37,8,37,0.00
2012-1-23,50,44,39,40,32,29,93,64,48,29.97,29.74,31,7,31,0.00
2012-1-24,43,39,35,35,32,28,83,74,61,30.03,29.94,14,4,14,0.00
2012-1-25,41,35,30,30,21,16,88,60,38,30.09,30.03,19,6,19,0.00
2012-1-26,34,30,25,27,21,15,87,70,50,30.24,30.09,12,4,12,0.00
2012-1-27,37,30,23,30,22,19,94,76,52,30.45,30.24,9,2,9,0.00
2012-1-28,36,28,21,24,18,15,88,68,44,30.47,30.45,12,3,12,0.00
2012-1-29,34,28,22,25,21,17,90,76,56,30.50,30.45,20,3,20,0.00
2012-1-30,37,27,18,20,10,-2,89,51,23,30.50,30.45,17,5,17,0.00
2012-1-31,31,24,17,16,7,4,69,49,34,30.50,30.39,19,5,19,0.00
2012-2-1,30,21,14,13,5,-2,70,49,35,30.39,29.68,14,4,14,0.00
2012-2-2,25,17,12,-1,-5,-8,44,36,24,30.45,30.33,14,5,14,0.00
2012-2-3,20,14,7,-4,-8,-13,43,36,28,30.45,30.36,13,6,13,0.00
2012-2-4,20,19,17,16,6,-11,87,61,25,30.39,30.30,16,6,16,0.00
2012-2-5,19,14,8,14,7,-1,85,73,61,30.45,30.36,10,3,10,0.00
2012-2-6,18,11,4,12,4,-5,85,73,67,30.45,30.24,9,2,9,0.00
2012-2-7,30,22,17,16,13,8,80,67,52,30.42,30.15,11,4,12,0.00
2012-2-8,27,18,10,12,8,4,82,64,48,30.56,30.42,7,3,7,0.00
2012-2-9,21,16,11,12,7,2,77,68,56,30.47,30.33,12,3,12,0.00
2012-2-10,23,15,8,15,4,0,88,63,47,30.53,30.42,9,2,9,0.00
2012-2-11,26,17,7,8,3,-3,63,53,42,30.50,30.36,9,3,9,0.00
2012-2-12,30,21,14,13,7,5,75,55,36,30.39,30.24,9,3,9,0.00
2012-2-13,30,23,17,11,8,6,67,54,42,30.24,30.00,10,3,10,0.00
2012-2-14,32,24,12,23,14,5,82,68,53,30.00,29.88,8,1,9,0.00
2012-2-15,37,30,24,32,22,16,93,73,62,29.88,29.38,44,8,44,0.00
2012-2-16,37,33,29,24,19,15,72,56,43,30.12,29.50,36,14,36,0.00
2012-2-17,39,33,28,36,28,19,92,81,65,30.12,29.97,22,4,22,0.00
2012-2-18,49,41,33,35,30,23,84,68,39,30.12,30.03,19,7,19,0.00
2012-2-19,37,33,29,32,30,27,96,87,77,30.24,30.06,12,2,12,0.00
2012-2-20,44,38,32,33,28,22,91,69,49,30.53,30.24,12,3,12,0.00
2012-2-21,42,34,26,29,23,20,84,63,42,30.56,30.45,10,1,10,0.00
2012-2-22,46,36,26,34,26,22,89,69,48,30.47,30.39,11,1,11,0.00
2012-2-23,46,36,27,37,30,24,97,79,54,30.39,30.09,25,5,25,0.00
2012-2-24,55,48,41,45,40,35,83,74,63,30.15,30.03,31,10,31,0.00
2012-2-25,56,50,44,42,32,26,74,53,36,30.06,29.97,37,10,37,0.00
2012-2-26,53,44,35,31,26,14,66,49,37,30.09,29.88,24,9,24,0.00
2012-2-27,42,36,30,18,14,10,53,40,30,30.21,30.09,22,9,22,0.00
2012-2-28,41,33,30,40,26,15,97,77,48,30.21,29.83,16,2,16,0.00
2012-2-29,58,50,40,44,33,23,97,57,27,30.15,29.77,31,11,32,0.00
2012-3-1,56,47,33,44,34,25,83,63,40,30.27,30.15,10,2,10,0.00
2012-3-2,59,51,42,46,39,30,84,64,50,30.18,30.12,26,10,26,0.00
2012-3-3,53,43,34,31,24,15,77,48,27,30.27,30.18,13,3,13,0.00
2012-3-4,47,39,27,26,20,17,70,48,33,30.30,30.18,12,3,12,0.00
2012-3-5,46,38,28,22,19,15,62,46,36,30.21,30.12,10,3,10,0.00
2012-3-6,44,34,23,21,15,8,74,47,32,30.45,30.18,24,5,24,0.00
2012-3-7,39,32,23,16,10,8,59,40,30,30.50,30.24,12,3,12,0.00
2012-3-8,41,33,26,21,16,10,60,48,39,30.39,30.18,12,3,12,0.00
2012-3-9,48,38,28,29,26,20,82,62,41,30.59,30.39,14,3,14,0.00
2012-3-10,51,41,29,33,25,21,86,56,32,30.62,30.39,12,3,12,0.00
2012-3-11,52,44,37,38,28,19,70,54,39,30.39,30.03,30,10,30,0.00
2012-3-12,53,45,37,36,25,16,77,47,28,30.21,30.09,22,8,22,0.00
2012-3-13,58,48,36,42,35,32,92,64,41,30.30,30.21,19,4,19,0.00
2012-3-14,56,48,43,38,35,32,73,59,41,30.30,30.21,25,11,25,0.00
2012-3-15,60,49,39,37,28,22,75,48,25,30.39,30.27,18,6,18,0.00
2012-3-16,64,48,32,34,30,25,77,51,31,30.42,30.24,10,2,10,0.00
2012-3-17,69,55,36,36,31,28,77,45,23,30.27,30.12,14,3,14,0.00
2012-3-18,69,58,47,38,34,26,52,40,29,30.12,30.03,15,4,15,0.00
2012-3-19,66,57,47,41,36,28,68,47,36,30.42,30.03,21,6,21,0.00
2012-3-20,61,52,42,30,24,11,62,36,14,30.56,30.42,12,4,16,0.00
2012-3-21,69,56,40,30,26,19,48,32,23,30.56,30.45,15,4,15,0.00
2012-3-22,67,56,42,41,36,29,69,48,33,30.53,30.39,19,3,19,0.00
2012-3-23,70,57,42,42,36,32,75,48,27,30.39,30.21,8,2,8,0.00
2012-3-24,70,58,42,40,34,30,74,44,24,30.27,30.18,13,3,13,0.00
2012-3-25,69,59,43,39,32,18,70,39,19,30.27,30.15,23,7,23,0.00
2012-3-26,65,56,46,32,20,6,55,28,10,30.42,30.21,18,5,18,0.00
2012-3-27,63,53,36,33,25,16,52,34,24,30.45,30.09,27,8,29,0.00
2012-3-28,68,60,49,39,34,29,50,39,31,30.27,30.00,20,7,20,0.00
2012-3-29,64,58,47,39,32,26,61,38,26,30.00,29.77,33,11,33,0.00
2012-3-30,56,50,44,40,33,27,77,53,34,29.80,29.68,35,13,38,0.00
2012-3-31,59,52,44,40,34,28,70,53,36,29.74,29.53,38,11,38,0.00
2012-4-1,50,44,35,28,21,17,57,42,28,29.97,29.68,29,11,29,0.00
2012-4-2,61,50,35,25,22,18,52,35,24,29.97,29.80,20,4,20,0.00
2012-4-3,68,56,40,41,31,20,58,38,28,29.83,29.77,10,3,10,0.00
2012-4-4,72,62,50,47,43,39,78,51,32,29.83,29.77,9,4,12,0.00
2012-4-5,75,64,50,52,45,41,78,53,34,29.88,29.77,14,2,14,0.00
2012-4-6,67,58,50,59,50,40,97,77,57,29.83,29.68,19,6,19,0.00
2012-4-7,62,52,46,49,42,34,91,70,40,29.71,29.53,22,5,22,0.00
2012-4-8,51,43,38,38,23,17,71,45,33,29.85,29.56,29,13,29,0.00
2012-4-9,48,41,35,21,18,15,52,40,29,29.91,29.85,13,4,13,0.00
2012-4-10,55,45,30,30,22,18,77,42,25,29.97,29.80,15,4,15,0.00
2012-4-11,65,53,39,32,28,23,59,39,25,29.80,29.59,19,4,19,0.00
2012-4-12,57,51,45,45,38,31,83,63,41,29.71,29.53,18,3,18,0.00
2012-4-13,64,54,39,45,38,33,93,60,33,29.74,29.59,19,4,20,0.00
2012-4-14,57,54,51,44,42,37,75,64,47,29.59,29.41,15,4,15,0.00
2012-4-15,65,56,50,48,45,42,83,67,46,29.53,29.41,12,3,12,0.00
2012-4-16,57,51,46,47,44,38,88,76,62,29.80,29.53,18,4,18,0.00
2012-4-17,48,47,46,43,40,39,84,78,74,29.83,29.80,9,2,10,0.00
2012-4-24,56,55,54,51,49,48,83,81,78,29.71,29.65,9,2,9,0.00
2012-4-25,65,58,51,49,39,34,84,52,33,29.94,29.71,18,4,18,0.00
2012-4-26,71,61,47,46,41,39,81,51,33,30.06,29.94,18,4,18,0.00
2012-4-27,77,65,48,49,43,38,79,48,28,30.18,30.06,21,5,21,0.00
2012-4-28,83,71,54,49,44,37,73,41,20,30.27,30.15,20,4,20,0.00
2012-4-29,83,72,55,50,41,28,71,37,14,30.18,30.03,27,4,27,0.00
2012-4-30,85,73,55,48,42,37,70,36,19,30.09,30.00,14,4,18,0.00
2012-5-1,87,74,57,49,44,37,68,37,18,30.09,30.00,15,3,15,0.00
2012-5-2,88,75,57,49,44,38,71,37,18,30.00,29.85,14,3,15,0.00
2012-5-3,82,74,60,55,48,44,63,41,30,29.85,29.74,17,5,18,0.00
2012-5-4,74,66,59,57,52,46,81,63,38,29.77,29.71,13,2,13,0.00
2012-5-5,77,68,55,53,44,35,82,47,25,29.80,29.74,13,3,13,0.00
2012-5-6,75,68,57,46,44,41,64,42,31,29.91,29.80,8,2,9,0.00
2012-5-7,67,61,57,57,54,44,92,78,44,30.03,29.91,9,2,10,0.00
2012-5-8,70,62,50,55,48,38,93,66,33,30.12,30.03,15,3,16,0.00
2012-5-9,76,63,49,55,48,41,95,63,30,30.21,30.12,10,3,10,0.00
2012-5-10,81,69,52,53,45,39,84,48,23,30.30,30.21,11,3,11,0.00
2012-5-11,84,72,54,53,46,38,84,44,20,30.36,30.21,9,2,9,0.00
2012-5-12,86,70,56,60,51,44,79,53,29,30.21,30.06,31,6,31,0.00
2012-5-13,62,55,49,47,40,30,86,59,36,30.27,30.15,25,4,25,0.00
2012-5-14,56,53,48,45,36,29,78,54,41,30.15,29.94,19,6,20,0.00
2012-5-15,65,56,51,44,42,40,76,60,43,29.94,29.77,12,4,12,0.00
2012-5-16,67,59,52,46,42,37,78,54,40,29.85,29.74,27,9,28,0.00
2012-5-17,63,56,48,37,31,26,52,39,26,30.09,29.85,30,12,31,0.00
2012-5-18,66,56,41,41,33,28,68,43,27,30.15,30.03,16,4,16,0.00
2012-5-19,72,62,46,49,44,40,83,55,37,30.12,30.00,13,3,14,0.00
2012-5-20,80,69,51,52,48,45,86,51,31,30.03,29.88,14,3,18,0.00
2012-5-21,81,72,60,55,51,46,74,51,31,29.88,29.77,28,7,28,0.00
2012-5-22,81,69,62,63,56,46,90,67,30,29.80,29.65,24,4,24,0.00
2012-5-23,81,70,58,65,56,49,97,64,34,30.00,29.77,27,5,27,0.00
2012-5-24,80,73,67,56,49,39,69,44,24,30.09,29.97,26,7,26,0.00
2012-5-25,71,66,59,48,39,33,54,37,25,30.15,30.06,17,8,21,0.00
2012-5-26,72,64,53,38,35,31,53,34,24,30.15,30.03,21,6,21,0.00
2012-5-27,74,64,53,46,39,34,66,40,25,30.12,30.00,35,5,35,0.00
2012-5-28,70,57,50,56,48,40,90,73,34,30.00,29.85,19,3,19,0.00
2012-5-29,73,61,51,56,50,45,95,71,38,29.91,29.83,11,2,11,0.00
2012-5-30,80,69,55,58,48,37,87,52,23,30.03,29.88,24,6,24,0.00
2012-5-31,79,70,57,56,47,38,80,48,24,30.09,30.00,19,5,19,0.00
2012-6-1,71,64,60,58,52,47,86,64,43,30.00,29.85,28,6,28,0.00
2012-6-2,64,58,54,54,49,41,87,72,49,30.09,29.97,12,2,12,0.00
2012-6-3,84,70,52,61,55,50,94,64,41,30.00,29.77,11,2,11,0.00
2012-6-4,82,74,63,61,57,54,89,58,40,29.83,29.77,14,4,14,0.00
2012-6-5,68,61,52,59,50,41,87,69,43,29.97,29.77,34,11,34,0.00
2012-6-6,73,64,50,50,45,37,84,53,27,29.97,29.85,22,3,22,0.00
2012-6-7,80,72,60,57,51,46,74,50,32,29.91,29.83,20,3,20,0.00
2012-6-8,86,76,64,62,58,55,82,55,37,29.88,29.80,11,2,11,0.00
2012-6-9,81,75,66,64,60,56,82,62,46,30.00,29.88,14,3,14,0.00
2012-6-10,75,72,68,66,64,60,91,77,61,29.94,29.74,15,5,15,0.00
2012-6-11,71,65,61,65,59,55,96,81,59,29.77,29.71,12,2,13,0.00
2012-6-12,70,64,59,65,60,56,95,86,68,29.74,29.59,18,2,18,0.00
2012-6-13,70,62,58,62,56,52,97,81,59,29.97,29.65,14,4,20,0.00
2012-6-14,74,66,57,56,52,47,85,61,40,30.12,29.97,16,5,16,0.00
2012-6-15,79,69,56,58,53,50,85,59,39,30.21,30.12,12,2,12,0.00
2012-6-16,85,75,59,61,54,48,90,53,28,30.24,30.18,16,3,16,0.00
2012-6-17,89,79,62,60,55,50,80,47,28,30.21,30.15,12,3,12,0.00
2012-6-18,90,81,67,64,58,53,77,48,29,30.18,30.06,17,4,17,0.00
2012-6-19,92,83,68,64,57,51,78,45,27,30.15,30.06,14,4,14,0.00
2012-6-20,93,84,70,64,56,44,74,42,19,30.06,29.88,20,4,20,0.00
2012-6-21,93,84,70,64,60,57,71,47,31,29.91,29.83,10,2,10,0.00
2012-6-22,84,76,67,69,64,57,92,67,44,30.09,29.83,22,6,22,0.00
2012-6-23,84,76,67,63,56,47,80,53,29,30.21,30.09,17,5,17,0.00
2012-6-24,84,76,63,60,53,47,81,48,28,30.21,29.97,14,3,14,0.00
2012-6-25,76,68,61,61,58,51,89,70,44,30.03,29.94,16,3,16,0.00
2012-6-26,74,69,60,54,47,43,72,47,34,30.12,30.00,27,8,27,0.00
2012-6-27,76,68,56,55,46,41,81,49,30,30.18,30.06,23,5,23,0.00
2012-6-28,83,71,59,60,55,49,79,59,38,30.06,29.94,15,3,15,0.00
2012-6-29,86,75,63,63,60,58,93,63,39,30.03,29.97,16,4,16,0.00
2012-6-30,94,82,68,63,59,52,78,49,25,30.06,29.97,20,5,20,0.00
2012-7-1,96,86,72,67,60,56,73,45,27,30.06,29.97,19,5,19,0.00
2012-7-2,96,86,73,67,60,54,72,44,26,30.12,30.03,19,5,19,0.00
2012-7-3,95,87,75,64,55,43,62,36,17,30.09,29.94,21,5,21,0.00
2012-7-4,95,84,71,64,58,51,67,43,23,30.00,29.88,15,3,15,0.00
2012-7-5,98,85,71,62,56,44,63,41,17,29.97,29.85,24,4,24,0.00
2012-7-6,98,85,70,64,57,47,73,42,18,29.97,29.83,28,4,28,0.00
2012-7-7,94,82,69,67,61,54,81,53,27,30.00,29.85,14,3,16,0.00
2012-7-8,95,86,73,68,60,50,74,44,27,29.91,29.83,10,2,10,0.00
2012-7-9,93,83,70,64,57,46,75,44,22,29.94,29.85,18,6,18,0.00
2012-7-10,88,79,70,66,55,42,77,47,21,30.00,29.91,14,3,14,0.00
2012-7-11,89,80,69,64,56,50,76,45,28,30.00,29.88,19,3,19,0.00
2012-7-12,79,72,66,65,54,42,90,59,28,30.06,29.91,21,5,21,0.00
2012-7-13,72,67,59,57,50,44,87,58,39,30.06,29.91,16,5,16,0.00
2012-7-14,85,69,56,62,57,54,96,68,39,29.91,29.83,25,3,25,0.00
2012-7-15,74,66,61,62,56,52,87,70,46,30.03,29.88,24,5,24,0.00
2012-7-16,73,66,60,55,51,46,77,59,40,30.24,30.03,25,10,25,0.00
2012-7-17,74,67,58,53,48,42,73,52,34,30.24,30.12,21,6,21,0.00
2012-7-18,79,71,60,57,51,46,79,51,32,30.18,30.06,20,6,21,0.00
2012-7-19,89,76,62,63,52,44,88,48,22,30.06,29.80,36,4,36,0.00
2012-7-20,80,72,65,64,53,44,93,57,30,30.03,29.91,19,5,19,0.00
2012-7-21,71,66,62,60,57,48,88,72,48,30.06,29.97,17,6,17,0.00
2012-7-22,76,67,60,59,52,45,93,62,35,30.24,30.06,18,4,18,0.00
2012-7-23,82,72,61,54,48,43,62,44,34,30.27,30.21,15,6,15,0.00
2012-7-24,86,73,64,64,57,53,89,58,37,30.24,30.03,23,6,24,0.00
2012-7-25,78,72,66,68,65,63,97,80,61,30.06,29.94,22,6,22,0.00
2012-7-26,82,72,65,69,65,62,96,81,54,30.00,29.97,13,3,13,0.00
2012-7-27,88,76,63,69,63,57,96,67,36,30.00,29.94,14,2,14,0.00
2012-7-28,89,80,68,70,64,58,90,60,36,29.97,29.88,14,3,14,0.00
2012-7-29,90,76,66,70,65,58,94,72,43,30.00,29.80,34,5,34,0.00
2012-7-30,84,75,67,71,60,50,95,65,40,30.09,29.94,19,4,19,0.00
2012-7-31,86,75,62,64,57,52,81,56,35,30.12,30.03,15,4,15,0.00
2012-8-1,87,77,66,61,56,50,78,51,30,30.09,30.00,13,4,13,0.00
2012-8-2,89,79,67,64,58,52,82,53,29,30.06,29.97,11,2,11,0.00
2012-8-3,93,81,68,66,62,55,81,56,31,30.03,29.97,17,4,17,0.00
2012-8-4,90,80,69,68,61,52,82,55,28,30.03,29.94,8,2,8,0.00
2012-8-5,95,82,69,66,61,52,80,52,25,30.00,29.91,15,3,15,0.00
2012-8-6,98,86,71,66,58,48,74,44,19,29.97,29.88,10,2,10,0.00
2012-8-7,83,77,70,62,52,46,66,43,29,30.21,29.91,27,9,27,0.00
2012-8-8,84,73,63,56,50,46,67,46,29,30.24,30.18,22,5,22,0.00
2012-8-9,82,73,61,57,46,37,75,42,21,30.21,30.12,20,5,20,0.00
2012-8-10,81,71,60,52,45,40,68,41,26,30.21,30.12,23,6,23,0.00
2012-8-11,71,64,57,53,46,42,69,52,39,30.12,30.03,20,5,20,0.00
2012-8-12,74,65,59,51,47,43,69,53,37,30.06,30.00,13,5,13,0.00
2012-8-13,77,67,55,54,45,35,84,49,23,30.06,29.97,17,3,17,0.00
2012-8-14,77,68,53,50,44,41,73,45,30,30.03,29.94,25,6,25,0.00
2012-8-15,80,70,55,51,46,41,74,46,26,30.03,29.94,19,5,19,0.00
2012-8-16,84,72,58,54,48,41,76,46,23,30.06,29.97,14,3,14,0.00
2012-8-17,83,73,63,57,52,46,66,49,33,30.18,30.06,12,3,12,0.00
2012-8-18,85,75,61,60,54,48,85,51,29,30.27,30.18,12,3,12,0.00
2012-8-19,87,76,62,57,52,46,76,46,25,30.30,30.21,10,2,10,0.00
2012-8-20,93,80,62,56,50,44,72,40,19,30.24,30.12,8,1,8,0.00
2012-8-21,95,82,66,59,54,45,72,42,19,30.15,30.03,15,2,15,0.00
2012-8-22,96,84,68,64,58,54,78,46,25,30.06,29.97,13,2,13,0.00
2012-8-23,90,82,74,64,60,55,68,49,31,30.03,29.97,17,3,17,0.00
2012-8-24,94,82,68,65,59,53,81,48,26,29.97,29.85,15,3,15,0.00
2012-8-25,93,82,67,63,56,51,78,44,25,29.91,29.85,15,4,16,0.00
2012-8-26,86,75,66,61,57,51,78,54,36,29.97,29.83,29,8,29,0.00
2012-8-27,77,70,63,59,49,44,77,50,32,30.18,29.94,27,12,27,0.00
2012-8-28,78,69,54,50,44,39,73,43,25,30.24,30.12,11,2,12,0.00
2012-8-29,84,71,57,52,48,41,81,48,22,30.18,30.09,10,2,10,0.00
2012-8-30,86,75,60,55,49,42,74,43,22,30.18,30.03,13,3,13,0.00
2012-8-31,88,76,63,56,48,38,63,41,18,30.03,29.91,17,4,17,0.00
2012-9-1,77,68,62,64,59,55,89,73,49,30.15,29.97,14,3,14,0.00
2012-9-2,87,74,61,64,56,47,94,59,25,30.21,30.15,13,3,13,0.00
2012-9-3,90,78,63,60,55,50,79,50,26,30.18,30.03,11,4,11,0.00
2012-9-4,84,75,66,61,58,55,78,56,39,30.09,30.03,9,2,9,0.00
2012-9-5,86,74,64,62,58,54,84,60,39,30.06,29.97,10,2,10,0.00
2012-9-6,80,70,62,59,52,42,77,53,33,30.24,29.97,23,6,23,0.00
2012-9-7,75,66,51,45,41,35,71,43,25,30.30,30.15,18,4,18,0.00
2012-9-8,82,72,61,51,47,43,61,42,30,30.18,30.09,22,6,22,0.00
2012-9-9,82,71,58,54,49,46,80,49,29,30.18,30.12,12,2,12,0.00
2012-9-10,83,72,59,54,48,43,74,45,25,30.21,30.12,17,4,17,0.00
2012-9-11,84,73,58,53,48,43,70,44,24,30.15,30.00,17,3,17,0.00
2012-9-12,73,68,65,56,54,44,73,63,36,29.77,29.74,8,1,8,0.00
2012-9-13,65,58,55,56,54,51,95,88,73,29.88,29.68,10,2,10,0.00
2012-9-14,64,59,55,59,56,54,97,90,79,29.97,29.85,10,3,10,0.00
2012-9-15,71,63,56,54,46,42,80,55,35,30.03,29.85,28,7,28,0.00
2012-9-16,70,61,51,52,48,45,86,65,44,30.12,30.03,11,3,11,0.00
2012-9-17,74,64,50,54,48,41,92,62,33,30.12,30.03,14,3,14,0.00
2012-9-18,75,66,57,58,55,51,83,68,47,30.09,29.94,9,2,9,0.00
2012-9-19,78,65,57,62,55,45,94,70,46,29.94,29.85,22,4,22,0.00
2012-9-20,59,54,49,50,45,38,94,72,47,30.21,29.94,22,6,22,0.00
2012-9-21,65,54,42,48,39,33,88,60,31,30.27,30.12,8,2,8,0.00
2012-9-22,68,56,43,50,43,38,89,66,40,30.12,29.97,14,2,14,0.00
2012-9-23,68,60,53,52,45,34,87,61,31,30.12,29.97,14,2,14,0.00
2012-9-24,74,62,51,59,53,43,85,71,57,30.00,29.65,17,4,17,0.00
2012-9-25,74,67,59,58,52,44,89,62,34,29.88,29.65,23,5,23,0.00
2012-9-26,81,69,55,56,52,50,85,58,36,29.91,29.85,15,4,15,0.00
2012-9-27,82,70,62,58,54,52,74,57,36,29.97,29.85,12,3,12,0.00
2012-9-28,75,66,57,54,47,40,76,53,33,30.21,29.97,18,6,18,0.00
2012-9-29,74,66,58,58,53,48,76,64,48,30.18,30.00,13,4,13,0.00
2012-9-30,74,66,60,59,53,48,86,63,41,30.18,30.00,13,3,13,0.00
2012-10-1,74,65,59,57,55,52,83,70,54,30.18,30.03,12,3,12,0.00
2012-10-2,68,62,59,64,60,56,97,91,81,30.09,29.97,11,3,12,0.24
2012-10-3,71,62,53,58,51,46,97,69,46,30.09,30.00,18,4,18,0.00
2012-10-4,71,59,47,58,50,46,96,75,41,30.09,29.97,14,3,14,0.00
2012-10-5,67,61,53,55,43,34,83,54,32,30.18,30.00,29,5,29,0.00
2012-10-6,74,63,51,54,50,46,88,65,46,30.12,29.97,9,2,9,0.00
2012-10-7,70,60,50,59,52,39,95,78,47,30.00,29.77,30,4,30,0.00
2012-10-8,60,52,44,45,38,33,83,62,41,30.18,30.00,22,8,22,0.00
2012-10-9,62,52,38,46,38,34,96,64,36,30.06,29.85,12,2,12,0.00
2012-10-10,62,54,45,44,37,30,78,54,35,29.97,29.88,12,4,12,0.00
2012-10-13,64,56,50,51,46,42,85,70,54,30.03,29.91,10,1,10,0.00
2012-10-14,56,54,32,55,50,32,96,86,78,29.91,29.26,10,2,10,0.00
2012-10-15,66,59,56,59,55,53,97,87,69,29.85,29.77,15,5,15,0.04
2012-10-16,61,55,48,60,53,44,97,95,87,29.97,29.71,14,4,14,1.57
2012-10-17,63,54,47,48,44,39,91,70,43,30.21,29.97,11,2,11,0.00
2012-10-18,65,56,49,52,46,42,94,70,44,30.27,30.15,18,5,18,0.00
2012-10-19,68,56,47,52,47,42,88,72,51,30.21,30.12,10,3,10,0.00
2012-10-20,70,58,48,54,51,46,93,78,56,30.15,30.09,10,4,10,0.00
2012-10-21,68,57,46,55,49,44,96,77,50,30.18,30.12,9,3,9,0.00
2012-10-22,68,55,42,55,48,41,97,79,49,30.21,30.15,6,1,6,0.00
2012-10-23,67,53,42,55,48,41,97,85,49,30.21,30.15,9,2,9,0.00
2012-10-24,55,49,44,54,47,43,97,93,83,30.18,30.06,10,1,10,0.00
2012-10-25,52,50,48,46,43,41,90,80,67,30.06,29.83,7,1,7,0.00
2012-10-26,56,50,43,51,43,39,95,78,56,29.85,29.65,17,3,17,0.16
2012-10-27,55,48,42,54,47,40,97,95,87,29.65,29.21,17,3,17,0.67
2012-10-28,42,39,36,40,35,30,97,86,75,29.83,29.32,23,5,24,0.16
2012-10-29,41,38,34,39,35,30,96,90,80,29.83,29.77,12,4,12,0.28
2012-10-30,47,40,32,32,28,24,82,64,47,29.88,29.80,15,4,15,0.00
2012-10-31,44,39,33,37,32,28,88,79,66,29.94,29.83,14,4,14,0.00
2012-11-1,49,44,38,48,38,26,97,83,58,29.83,29.44,24,6,24,0.75
2012-11-2,59,49,38,54,45,36,97,85,69,29.88,29.53,15,3,15,0.00
2012-11-3,49,43,36,48,42,35,97,96,91,29.97,29.88,9,2,9,0.00
2012-11-4,66,55,43,57,48,42,97,80,56,29.91,29.68,11,2,11,0.00
2012-11-5,58,52,47,54,46,37,92,79,70,29.77,29.44,24,5,24,0.12
2012-11-6,60,48,42,42,35,28,86,60,40,30.12,29.77,26,6,27,0.00
2012-11-7,49,45,37,39,34,29,78,65,47,30.27,30.09,25,4,25,0.00
2012-11-8,58,50,44,42,39,36,79,66,45,30.27,30.06,15,4,15,0.00
2012-11-9,58,47,38,44,38,34,87,72,49,30.18,30.00,22,4,22,0.00
2012-11-10,48,40,32,46,38,31,97,92,84,30.18,30.09,18,3,18,0.00
2012-11-11,53,47,41,43,40,36,95,77,56,30.12,30.03,18,6,18,0.00
2012-11-12,51,47,44,47,44,40,97,90,78,30.27,30.12,7,2,7,0.08
2012-11-13,55,50,46,53,46,37,97,90,69,30.47,30.27,9,1,9,0.04
2012-11-14,50,43,36,37,32,28,85,65,48,30.47,30.42,9,3,9,0.00
2012-11-15,45,40,37,43,38,32,97,92,76,30.42,30.27,7,1,7,0.00
2012-11-16,50,44,39,46,40,37,97,87,67,30.30,30.24,11,2,11,0.00
2012-11-17,46,42,36,42,39,36,97,90,77,30.24,30.06,12,3,12,0.00
2012-11-18,48,45,41,45,41,38,93,87,79,30.06,30.03,12,4,12,0.04
2012-11-19,50,46,43,44,42,40,93,85,73,30.15,30.06,7,1,7,0.00
2012-11-20,50,41,35,48,40,34,97,95,85,30.24,30.15,9,2,9,0.00
2012-11-21,51,43,36,50,41,35,97,91,78,30.24,30.18,7,1,7,0.00
2012-11-22,47,45,44,44,42,41,94,90,86,30.27,30.21,7,1,7,0.04
2012-11-23,46,45,44,46,44,42,97,96,91,30.27,30.21,7,1,7,0.04
2012-11-24,50,48,46,49,46,44,97,92,82,30.24,30.21,10,2,10,0.00
2012-11-25,48,45,43,46,43,41,97,94,86,30.21,30.12,8,1,8,0.00
2012-11-26,46,45,43,45,44,42,97,96,94,30.15,29.91,10,3,10,0.04
2012-11-27,59,49,39,53,44,38,97,83,59,29.91,29.80,11,2,11,0.00
2012-11-28,52,48,44,46,43,41,92,85,70,29.80,29.47,14,3,14,0.00
2012-11-29,59,51,45,56,44,30,97,77,54,29.47,29.29,20,4,20,0.16
2012-11-30,48,42,40,34,31,29,72,64,55,29.80,29.44,19,7,19,0.00
2012-12-1,49,39,32,32,28,25,88,65,43,29.97,29.77,15,4,17,0.00
2012-12-2,38,35,32,37,34,29,97,94,88,29.94,29.68,16,3,16,0.31
2012-12-3,38,35,32,34,26,20,95,70,53,29.83,29.65,26,13,28,0.04
2012-12-4,37,32,27,32,27,19,97,81,62,29.83,29.53,12,4,12,0.08
2012-12-5,37,32,28,36,31,27,97,96,93,29.71,29.50,10,2,10,0.12
2012-12-6,30,25,20,29,24,20,97,95,69,29.94,29.71,17,3,17,0.00
2012-12-7,36,28,21,20,17,14,76,63,45,30.00,29.91,21,4,21,0.00
2012-12-8,29,24,20,18,14,10,87,67,45,30.00,29.88,14,6,14,0.00
2012-12-9,31,27,20,14,12,9,70,53,46,30.00,29.88,22,6,22,0.00
2012-12-10,29,26,21,22,19,12,87,76,68,29.88,29.77,11,3,11,0.00
2012-12-11,30,26,23,24,21,17,89,81,68,29.97,29.85,17,4,17,0.00
2012-12-12,34,27,24,21,18,12,75,67,54,30.12,29.94,25,10,25,0.00
2012-12-13,32,25,21,18,14,12,73,65,53,30.21,30.12,17,5,17,0.00
2012-12-14,31,27,22,25,21,15,81,77,73,30.21,30.06,14,6,14,0.00
2012-12-15,35,33,31,34,30,24,97,88,75,30.06,29.85,13,3,13,1.89
2012-12-16,37,35,33,36,34,32,97,97,97,29.97,29.85,9,2,9,0.04
2012-12-17,36,34,33,35,34,32,97,97,97,29.94,29.88,14,3,14,0.04
2012-12-18,39,36,34,38,35,33,97,96,92,30.00,29.85,8,3,8,0.28
2012-12-19,40,37,34,39,36,33,97,97,95,30.15,30.00,9,3,9,0.00
2012-12-20,37,33,27,37,32,26,97,96,92,30.15,30.03,7,2,7,0.00
2012-12-21,27,25,21,26,24,21,97,97,97,30.06,29.97,6,2,6,0.00
2012-12-22,30,26,22,28,26,22,97,96,94,30.21,30.06,8,1,8,0.00
2012-12-23,31,29,28,30,27,25,95,92,88,30.18,30.06,13,5,13,0.00
2012-12-24,34,32,30,33,31,30,97,97,95,30.09,30.03,7,2,7,0.08
2012-12-25,35,33,30,34,32,30,97,97,97,30.03,29.91,8,2,8,0.08
2012-12-26,40,36,33,39,36,33,97,97,97,30.00,29.91,7,2,7,0.08
2012-12-27,48,41,34,44,38,32,97,91,67,30.03,29.85,10,4,10,0.00
2012-12-28,43,39,32,41,37,27,97,91,81,30.42,29.85,10,3,10,0.00
2012-12-29,40,33,27,27,18,11,86,57,32,30.47,30.39,10,2,10,0.00
2012-12-30,33,28,22,30,25,18,95,87,72,30.39,30.24,10,2,10,0.00
2012-12-31,36,28,24,34,27,22,97,93,82,30.36,30.21,7,1,7,0.00
2013-1-1,30,27,26,28,26,24,97,96,92,30.21,30.03,12,5,13,0.00